FW0103 Weather Reports


time (UTC)temp
C
wind
direction
speed
KPH
gust
KPH
rain 1hr
cm
rain 24hr
cm
rain mn
cm
humidity
%
barometer
mb
20180219041827 3 239 0.0 0.0 0.00 0.00 0.00 86 1018.6
20180219041333 3 239 0.0 0.0 0.00 0.00 0.00 87 1018.6
20180219040816 3 239 0.0 0.0 0.00 0.00 0.00 87 1018.6
20180219040324 3 240 0.0 1.6 0.00 0.00 0.00 87 1018.7
20180219035831 3 239 0.0 1.6 0.00 0.00 0.00 88 1018.6
20180219035322 3 240 0.0 0.0 0.00 0.00 0.00 88 1018.6
20180219034825 3 239 0.0 0.0 0.00 0.00 0.00 88 1018.6
20180219034317 3 239 0.0 0.0 0.00 0.00 0.00 88 1018.6
20180219033824 3 239 0.0 0.0 0.00 0.00 0.00 89 1018.8
20180219033314 3 239 0.0 1.6 0.00 0.00 0.00 89 1018.7
20180219032820 3 239 0.0 1.6 0.00 0.00 0.00 88 1018.7
20180219032328 3 239 0.0 1.6 0.00 0.00 0.00 88 1018.7
20180219031829 3 239 0.0 0.0 0.00 0.00 0.00 88 1018.7
20180219031314 3 240 0.0 0.0 0.00 0.00 0.00 88 1018.7
20180219030824 3 240 0.0 0.0 0.00 0.00 0.00 87 1018.8
20180219030328 3 240 0.0 0.0 0.00 0.00 0.00 87 1018.9
20180219025813 3 239 0.0 1.6 0.00 0.00 0.00 87 1018.9
20180219025325 3 239 0.0 1.6 0.00 0.00 0.00 88 1018.9
20180219024831 3 51 0.0 1.6 0.00 0.00 0.00 87 1018.8
20180219024320 3 51 0.0 1.6 0.00 0.00 0.00 87 1019.0
20180219023825 3 51 0.0 1.6 0.00 0.00 0.00 88 1019.0
20180219023314 3 51 0.0 0.0 0.00 0.00 0.00 86 1019.0
20180219022816 3 51 0.0 1.6 0.00 0.00 0.00 85 1019.1
20180219022323 3 51 0.0 1.6 0.00 0.00 0.00 85 1019.0
20180219021827 3 224 0.0 0.0 0.00 0.00 0.00 84 1019.0
20180219021313 3 224 0.0 0.0 0.00 0.00 0.00 83 1019.2
20180219020814 4 224 0.0 0.0 0.00 0.00 0.00 83 1019.1
20180219020321 4 224 0.0 0.0 0.00 0.00 0.00 83 1019.1
20180219015826 4 225 0.0 0.0 0.00 0.00 0.00 82 1019.1
20180219015312 5 224 0.0 0.0 0.00 0.00 0.00 81 1019.0
20180219014816 5 225 0.0 0.0 0.00 0.00 0.00 81 1019.2
20180219014322 5 225 0.0 1.6 0.00 0.00 0.00 82 1019.2
20180219013826 5 225 0.0 1.6 0.00 0.00 0.00 81 1019.2
20180219013315 5 225 0.0 0.0 0.00 0.00 0.00 80 1019.2
20180219012835 5 225 0.0 0.0 0.00 0.00 0.00 80 1019.2
20180219012332 5 225 0.0 0.0 0.00 0.00 0.00 79 1019.2
20180219011834 5 225 0.0 0.0 0.00 0.00 0.00 78 1019.1
20180219011321 5 120 0.0 1.6 0.00 0.00 0.00 78 1019.2
20180219010824 5 49 0.0 1.6 0.00 0.00 0.00 79 1019.3
20180219010338 6 49 0.0 0.0 0.00 0.00 0.00 77 1019.2
20180219005831 6 49 0.0 0.0 0.00 0.10 0.00 77 1019.3
20180219004814 6 49 0.0 0.0 0.00 0.10 0.00 75 1019.4
20180219004317 6 49 0.0 0.0 0.00 0.10 0.00 75 1019.4
20180219003824 6 49 0.0 0.0 0.00 0.10 0.00 74 1019.5
20180219003325 6 49 0.0 0.0 0.00 0.10 0.00 74 1019.6
20180219002814 6 49 0.0 0.0 0.00 0.10 0.00 74 1019.5
20180219002322 7 49 0.0 0.0 0.00 0.10 0.00 74 1019.6
20180219001816 7 49 0.0 0.0 0.00 0.10 0.00 73 1019.6
20180219001318 7 49 0.0 0.0 0.00 0.10 0.00 74 1019.6
20180219000828 7 49 0.0 0.0 0.00 0.10 0.00 73 1019.7
20180219000331 7 49 0.0 0.0 0.00 0.10 0.00 72 1019.6
20180218235816 7 49 0.0 0.0 0.00 0.10 0.03 72 1019.7
20180218235324 7 49 0.0 0.0 0.00 0.10 0.03 70 1019.8
20180218234819 8 49 0.0 0.0 0.00 0.10 0.03 69 1019.8
20180218234329 8 49 0.0 0.0 0.00 0.10 0.03 68 1019.8
20180218233820 8 49 0.0 0.0 0.00 0.10 0.03 66 1019.9
20180218233315 8 49 0.0 0.0 0.00 0.10 0.03 67 1019.9
20180218232825 8 49 0.0 3.2 0.00 0.10 0.03 69 1019.8
20180218232320 8 359 0.0 3.2 0.00 0.10 0.03 73 1019.9
20180218231829 7 54 0.0 0.0 0.00 0.10 0.03 77 1020.0
20180218231320 7 54 0.0 0.0 0.00 0.10 0.03 78 1020.0
20180218230817 7 54 0.0 0.0 0.00 0.10 0.03 79 1020.0
20180218230328 7 54 0.0 0.0 0.00 0.10 0.03 80 1020.0
20180218225817 7 54 0.0 0.0 0.00 0.10 0.03 79 1020.0
20180218225313 7 54 0.0 0.0 0.00 0.10 0.03 79 1020.0
20180218224824 7 54 0.0 0.0 0.00 0.10 0.03 79 1020.1
20180218224320 7 54 0.0 0.0 0.00 0.10 0.03 78 1020.2
20180218223832 7 55 0.0 0.0 0.00 0.10 0.03 78 1020.1
20180218223323 7 55 0.0 0.0 0.00 0.10 0.03 78 1020.1
20180218222819 7 55 0.0 0.0 0.00 0.10 0.03 77 1020.0
20180218222330 7 56 0.0 0.0 0.00 0.10 0.03 78 1020.1
20180218221819 7 56 0.0 0.0 0.00 0.10 0.03 77 1020.1
20180218221314 8 56 0.0 0.0 0.00 0.10 0.03 76 1019.9
20180218220824 8 56 0.0 0.0 0.00 0.10 0.03 75 1020.1
20180218220322 8 56 0.0 0.0 0.00 0.10 0.03 74 1019.9
20180218215830 9 56 0.0 0.0 0.00 0.10 0.03 74 1019.9
20180218215321 10 56 0.0 0.0 0.00 0.10 0.03 71 1019.9
20180218214818 10 56 0.0 0.0 0.00 0.10 0.03 70 1019.9
20180218214325 10 56 0.0 0.0 0.00 0.10 0.03 70 1020.0
20180218213820 10 7 0.0 0.0 0.00 0.10 0.03 71 1019.9
20180218213331 10 7 0.0 0.0 0.00 0.10 0.03 72 1019.9
20180218212821 10 280 0.0 0.0 0.00 0.10 0.03 72 1019.9
20180218212315 11 281 0.0 0.0 0.00 0.10 0.03 72 1019.9
20180218211824 11 242 0.0 0.0 0.00 0.10 0.03 72 1019.9
20180218211318 11 326 0.0 0.0 0.00 0.10 0.03 72 1019.9
20180218210827 11 342 0.0 1.6 0.00 0.10 0.03 72 1019.9
20180218210323 11 340 0.0 1.6 0.00 0.10 0.03 74 1019.9
20180218205828 10 288 0.0 0.0 0.00 0.10 0.03 76 1019.9
20180218205325 10 277 0.0 0.0 0.00 0.10 0.03 76 1019.9
20180218204833 10 276 0.0 0.0 0.00 0.10 0.03 77 1020.0
20180218204322 10 277 0.0 0.0 0.00 0.10 0.03 77 1020.0
20180218203825 10 277 0.0 0.0 0.00 0.10 0.03 76 1019.8
20180218203331 10 276 0.0 0.0 0.00 0.10 0.03 76 1019.9
20180218202834 10 277 0.0 0.0 0.00 0.10 0.03 76 1020.0
20180218202323 10 277 0.0 0.0 0.00 0.10 0.03 76 1019.9
20180218201829 10 278 0.0 0.0 0.00 0.10 0.03 76 1019.9
20180218201321 10 270 0.0 0.0 0.00 0.10 0.03 76 1019.7
20180218200825 10 270 0.0 3.2 0.00 0.10 0.03 77 1019.7
20180218200317 10 271 0.0 3.2 0.00 0.10 0.03 78 1019.7
20180218195825 9 279 0.0 0.0 0.00 0.10 0.03 80 1019.7
20180218195318 8 251 0.0 0.0 0.00 0.10 0.03 82 1019.6
20180218194828 8 251 0.0 0.0 0.00 0.10 0.03 82 1019.7
20180218194318 8 246 0.0 0.0 0.00 0.10 0.03 81 1019.6
20180218193825 8 248 0.0 0.0 0.00 0.10 0.03 80 1019.5
20180218193321 8 248 0.0 0.0 0.00 0.10 0.03 81 1019.6
20180218192829 8 248 0.0 0.0 0.00 0.10 0.03 80 1019.6
20180218192316 8 248 0.0 1.6 0.00 0.10 0.03 79 1019.5
20180218191830 8 255 0.0 1.6 0.00 0.10 0.03 78 1019.6
20180218191337 9 259 0.0 0.0 0.00 0.10 0.03 78 1019.5
20180218190821 9 262 0.0 0.0 0.00 0.10 0.03 77 1019.5
20180218190317 9 262 0.0 1.6 0.00 0.10 0.03 77 1019.5
20180218185823 10 262 0.0 1.6 0.00 0.10 0.03 76 1019.5
20180218185318 10 262 0.0 1.6 0.00 0.10 0.03 75 1019.4
20180218184828 10 262 0.0 0.0 0.00 0.10 0.03 76 1019.5
20180218184318 10 262 0.0 3.2 0.00 0.10 0.03 74 1019.4
20180218183814 10 262 0.0 3.2 0.00 0.10 0.03 72 1019.5
20180218183323 11 277 0.0 1.6 0.00 0.10 0.03 72 1019.5
20180218182324 11 257 0.0 1.6 0.00 0.10 0.03 69 1019.4
20180218181818 12 257 0.0 1.6 0.00 0.10 0.03 68 1019.4
20180218181327 12 257 0.0 1.6 0.00 0.10 0.03 66 1019.3
20180218180821 13 257 0.0 1.6 0.00 0.10 0.03 63 1019.3
20180218180330 13 326 0.0 1.6 0.00 0.10 0.03 60 1019.2
20180218175819 15 345 0.0 1.6 0.00 0.10 0.03 57 1019.2
20180218175315 16 345 0.0 1.6 0.00 0.10 0.03 53 1019.2
20180218174823 16 345 0.0 0.0 0.00 0.10 0.03 51 1019.2
20180218174318 16 345 0.0 1.6 0.00 0.10 0.03 51 1019.2
20180218173828 16 345 0.0 1.6 0.00 0.10 0.03 51 1019.2
20180218173323 16 346 0.0 1.6 0.00 0.10 0.03 50 1019.2
20180218172833 17 41 0.0 3.2 0.00 0.10 0.03 51 1019.2
20180218172322 17 340 0.0 3.2 0.00 0.10 0.03 49 1019.2
20180218171818 17 41 0.0 3.2 0.00 0.10 0.03 49 1019.2
20180218171329 17 45 0.0 9.7 0.00 0.10 0.03 50 1019.2
20180218170823 17 46 1.6 9.7 0.00 0.10 0.03 48 1019.2
20180218170332 17 60 1.6 6.4 0.00 0.10 0.03 48 1019.2
20180218165824 17 64 1.6 8.0 0.00 0.10 0.03 49 1019.1
20180218165331 17 63 1.6 8.0 0.00 0.10 0.03 49 1019.2
20180218164824 17 68 3.2 8.0 0.00 0.10 0.03 48 1019.2
20180218164331 17 280 0.0 6.4 0.00 0.10 0.03 49 1019.2
20180218163825 17 51 3.2 6.4 0.00 0.10 0.03 48 1019.2
20180218163332 17 330 1.6 6.4 0.00 0.10 0.03 49 1019.2
20180218162823 17 68 1.6 6.4 0.00 0.10 0.03 47 1019.2
20180218162331 17 68 3.2 6.4 0.00 0.10 0.03 49 1019.3
20180218161823 17 255 0.0 0.0 0.00 0.10 0.03 49 1019.2
20180218161331 17 150 0.0 1.6 0.00 0.10 0.03 52 1019.2
20180218160825 17 84 0.0 3.2 0.00 0.10 0.03 48 1019.2
20180218160330 17 84 1.6 4.8 0.00 0.10 0.03 49 1019.2
20180218155818 17 319 1.6 4.8 0.00 0.10 0.03 51 1019.3
20180218155326 17 58 1.6 4.8 0.00 0.10 0.03 50 1019.2
20180218154833 17 269 0.0 6.4 0.00 0.10 0.03 51 1019.3
20180218154321 17 61 1.6 4.8 0.00 0.10 0.03 50 1019.2
20180218153823 17 124 0.0 6.4 0.00 0.10 0.03 52 1019.3
20180218153313 17 92 1.6 8.0 0.00 0.10 0.03 51 1019.3
20180218152840 17 212 0.0 8.0 0.00 0.10 0.03 50 1019.3
20180218152322 17 275 1.6 6.4 0.00 0.10 0.03 52 1019.4
20180218151827 17 56 3.2 9.7 0.00 0.10 0.03 50 1019.4
20180218151318 17 56 3.2 9.7 0.00 0.10 0.03 52 1019.4
20180218150827 17 52 3.2 6.4 0.00 0.10 0.03 53 1019.5
20180218150314 17 58 3.2 8.0 0.00 0.10 0.03 53 1019.4
20180218145822 17 85 3.2 12.9 0.00 0.10 0.03 52 1019.5
20180218145328 17 93 6.4 12.9 0.00 0.10 0.03 53 1019.5
20180218144816 17 61 3.2 6.4 0.00 0.10 0.03 56 1019.5
20180218144328 17 53 1.6 6.4 0.00 0.10 0.03 51 1019.5
20180218143830 17 51 1.6 6.4 0.00 0.10 0.03 52 1019.7
20180218143318 17 43 1.6 9.7 0.00 0.10 0.03 51 1019.7
20180218142827 17 104 4.8 9.7 0.00 0.10 0.03 51 1019.9
20180218142331 17 8 1.6 12.9 0.00 0.10 0.03 50 1019.9
20180218141821 17 72 3.2 12.9 0.00 0.10 0.03 52 1020.0
20180218141328 17 326 1.6 8.0 0.00 0.10 0.03 55 1020.0
20180218140823 17 69 1.6 8.0 0.00 0.10 0.03 53 1020.1
20180218140330 17 226 1.6 9.7 0.00 0.10 0.03 54 1020.1
20180218135825 17 82 4.8 9.7 0.00 0.10 0.03 54 1020.1
20180218135328 17 56 1.6 6.4 0.00 0.10 0.03 54 1020.2
20180218134820 17 30 1.6 4.8 0.00 0.10 0.03 53 1020.3
20180218134327 17 64 1.6 4.8 0.00 0.10 0.03 56 1020.3
20180218133833 17 38 1.6 4.8 0.00 0.10 0.03 58 1020.3
20180218133333 17 44 3.2 4.8 0.00 0.10 0.03 55 1020.4
20180218132822 17 342 1.6 8.0 0.00 0.10 0.03 57 1020.3
20180218132327 16 284 1.6 8.0 0.00 0.10 0.03 60 1020.5
20180218131816 16 56 1.6 6.4 0.00 0.10 0.03 58 1020.6
20180218131324 16 71 1.6 8.0 0.00 0.10 0.03 60 1020.6
20180218130813 16 76 1.6 12.9 0.00 0.10 0.03 61 1020.6
20180218130328 16 79 4.8 12.9 0.00 0.10 0.03 63 1020.7
20180218125834 16 61 3.2 9.7 0.00 0.10 0.03 61 1020.8
20180218125317 16 42 4.8 9.7 0.00 0.10 0.03 62 1020.8
20180218124828 16 77 3.2 8.0 0.00 0.10 0.03 62 1020.9
20180218124331 15 21 4.8 8.0 0.00 0.10 0.03 64 1020.9
20180218123815 15 53 4.8 8.0 0.00 0.10 0.03 65 1021.0
20180218123326 15 85 3.2 6.4 0.00 0.10 0.03 63 1021.0
20180218122829 15 51 1.6 6.4 0.00 0.10 0.03 66 1021.2
20180218122313 15 4 1.6 4.8 0.00 0.10 0.03 69 1021.3
20180218121825 15 22 0.0 3.2 0.00 0.10 0.03 70 1021.3
20180218121326 15 291 0.0 4.8 0.00 0.10 0.03 70 1021.4
20180218120327 14 62 3.2 6.4 0.00 0.10 0.03 70 1021.5
20180218115830 14 67 1.6 4.8 0.00 0.10 0.03 72 1021.5
20180218115320 13 155 1.6 4.8 0.00 0.10 0.03 72 1021.7
20180218114826 13 75 3.2 6.4 0.00 0.10 0.03 72 1021.7
20180218114318 13 126 1.6 8.0 0.00 0.10 0.03 74 1021.7
20180218113828 13 39 3.2 8.0 0.00 0.10 0.03 74 1021.7
20180218113316 13 79 1.6 6.4 0.00 0.10 0.03 72 1021.7
20180218112828 13 29 0.0 4.8 0.00 0.10 0.03 74 1021.8
20180218112331 12 56 1.6 4.8 0.00 0.10 0.03 75 1021.9
20180218111819 12 74 1.6 6.4 0.00 0.10 0.03 79 1021.9
20180218111325 12 65 1.6 6.4 0.00 0.10 0.03 79 1021.8
20180218110815 12 78 1.6 6.4 0.00 0.10 0.03 81 1021.9
20180218110319 11 65 3.2 6.4 0.00 0.10 0.03 85 1021.9
20180218105829 11 72 0.0 4.8 0.00 0.10 0.03 91 1022.0
20180218105333 11 263 0.0 1.6 0.00 0.10 0.03 93 1022.0
20180218104816 11 252 0.0 6.4 0.00 0.10 0.03 95 1022.0
20180218104322 10 63 1.6 6.4 0.00 0.10 0.03 95 1022.1
20180218103832 10 107 1.6 3.2 0.00 0.10 0.03 95 1022.1
20180218103315 10 77 0.0 4.8 0.00 0.10 0.03 97 1022.1
20180218102823 10 61 1.6 4.8 0.00 0.10 0.03 96 1022.1
20180218102333 10 98 1.6 3.2 0.00 0.10 0.03 96 1022.2
20180218101813 9 65 1.6 3.2 0.00 0.10 0.03 97 1022.1
20180218101322 9 102 1.6 3.2 0.00 0.10 0.03 97 1022.2
20180218100833 8 49 0.0 3.2 0.00 0.10 0.03 97 1022.3
20180218100324 8 63 1.6 4.8 0.00 0.10 0.03 97 1022.3
20180218095818 8 75 1.6 4.8 0.00 0.10 0.03 97 1022.4
20180218095313 7 73 0.0 0.0 0.00 0.10 0.03 97 1022.3
20180218094824 7 72 0.0 3.2 0.00 0.10 0.03 97 1022.3
20180218094318 7 72 0.0 3.2 0.00 0.10 0.03 97 1022.3
20180218093828 7 143 0.0 0.0 0.00 0.10 0.03 97 1022.3
20180218093318 7 143 0.0 0.0 0.00 0.10 0.03 97 1022.3
20180218092814 6 143 0.0 0.0 0.00 0.10 0.03 97 1022.3
20180218092327 6 143 0.0 0.0 0.00 0.10 0.03 97 1022.2
20180218091818 6 143 0.0 0.0 0.00 0.10 0.03 97 1022.3
20180218091314 6 146 0.0 0.0 0.00 0.10 0.03 98 1022.3
20180218090818 6 117 0.0 0.0 0.00 0.10 0.03 98 1022.3
20180218090313 6 146 0.0 0.0 0.00 0.10 0.03 98 1022.4
20180218085820 6 226 0.0 0.0 0.00 0.10 0.03 98 1022.4
20180218085314 6 71 0.0 0.0 0.00 0.10 0.03 98 1022.4
20180218084825 5 70 0.0 0.0 0.00 0.10 0.03 98 1022.5
20180218084316 5 71 0.0 0.0 0.00 0.10 0.03 98 1022.4
20180218083824 5 137 0.0 1.6 0.00 0.10 0.03 98 1022.4
20180218083332 5 138 0.0 1.6 0.00 0.10 0.03 98 1022.4
20180218082821 4 137 0.0 1.6 0.00 0.10 0.03 98 1022.4
20180218082319 3 137 0.0 1.6 0.00 0.10 0.03 97 1022.4
20180218081829 3 137 0.0 0.0 0.00 0.10 0.03 97 1022.3
20180218081322 3 193 0.0 0.0 0.00 0.10 0.03 97 1022.3
20180218080829 4 194 0.0 0.0 0.00 0.10 0.03 98 1022.2
20180218080318 3 194 0.0 0.0 0.00 0.10 0.03 97 1022.0
20180218075816 2 194 0.0 0.0 0.00 0.10 0.03 97 1021.9
20180218075328 2 194 0.0 0.0 0.00 0.10 0.03 97 1022.0
20180218074820 2 193 0.0 0.0 0.00 0.10 0.03 97 1021.8
20180218074315 1 194 0.0 0.0 0.00 0.10 0.03 97 1021.8
20180218073825 1 194 0.0 1.6 0.00 0.10 0.03 97 1021.7
20180218073315 1 193 0.0 1.6 0.00 0.10 0.03 97 1021.7
20180218072830 1 146 0.0 0.0 0.00 0.10 0.03 97 1021.6
20180218072339 2 264 0.0 0.0 0.00 0.10 0.03 97 1021.6
20180218071822 2 264 0.0 0.0 0.00 0.10 0.03 97 1021.6
20180218071315 2 264 0.0 0.0 0.00 0.10 0.03 97 1021.7
20180218070825 2 264 0.0 0.0 0.00 0.10 0.03 97 1021.6
20180218070322 2 264 0.0 0.0 0.00 0.10 0.03 97 1021.6
20180218065833 2 264 0.0 0.0 0.00 0.10 0.03 97 1021.5
20180218065322 2 264 0.0 0.0 0.00 0.10 0.03 97 1021.6
20180218064817 2 264 0.0 0.0 0.00 0.10 0.03 97 1021.5
20180218064316 2 264 0.0 0.0 0.00 0.10 0.03 97 1021.5
20180218063820 2 264 0.0 0.0 0.00 0.10 0.03 97 1021.5
20180218063318 2 264 0.0 0.0 0.00 0.10 0.03 98 1021.4
20180218062829 2 264 0.0 0.0 0.00 0.10 0.03 98 1021.5
20180218062321 2 264 0.0 0.0 0.00 0.10 0.03 97 1021.5
20180218061819 2 264 0.0 0.0 0.00 0.10 0.03 97 1021.5
20180218061331 2 264 0.0 0.0 0.00 0.10 0.03 97 1021.6
20180218060818 2 264 0.0 0.0 0.00 0.10 0.03 97 1021.7
20180218060315 2 264 0.0 1.6 0.00 0.10 0.03 97 1021.7
20180218055821 2 264 0.0 0.0 0.00 0.10 0.03 97 1021.8
20180218055316 2 264 0.0 0.0 0.00 0.10 0.03 97 1021.9
20180218054829 2 264 0.0 0.0 0.00 0.10 0.03 97 1021.9
20180218054326 2 264 0.0 0.0 0.00 0.10 0.03 97 1021.8
20180218053840 2 264 0.0 0.0 0.00 0.10 0.03 97 1021.9
20180218053323 2 264 0.0 0.0 0.00 0.10 0.03 97 1021.9
20180218052821 2 264 0.0 0.0 0.00 0.10 0.03 97 1021.9
20180218052330 2 264 0.0 0.0 0.00 0.10 0.03 96 1021.9
20180218051822 3 264 0.0 0.0 0.00 0.10 0.03 97 1021.8
20180218051330 3 264 0.0 0.0 0.00 0.10 0.03 97 1021.8
20180218050828 3 264 0.0 1.6 0.00 0.10 0.03 97 1021.8
20180218050340 3 264 0.0 1.6 0.00 0.10 0.03 97 1022.0
20180218045825 3 264 0.0 0.0 0.00 0.10 0.03 97 1022.0
20180218045323 3 264 0.0 0.0 0.00 0.10 0.03 96 1022.0
20180218044829 3 264 0.0 0.0 0.00 0.10 0.03 97 1021.9
20180218044321 3 264 0.0 0.0 0.00 0.10 0.03 97 1022.0
20180218043819 3 264 0.0 0.0 0.00 0.10 0.03 96 1021.9
20180218043328 3 264 0.0 0.0 0.00 0.10 0.03 97 1021.9
20180218042822 3 264 0.0 0.0 0.00 0.10 0.03 97 1021.9
20180218042314 4 264 0.0 0.0 0.00 0.10 0.03 97 1021.9